Regional Weather Roundup
Issued by NWS

Home | Current Version | Previous Version | Graphics & Text | Print | Product List | Glossary On
Versions: 1 2 3 4 5 6 7 8 9 10 11 12 13 14 15 16 17 18 19 20 21 22 23 24 25 26 27 28 29 30 31 32 33 34 35 36 37 38 39 40 41 42 43 44 45 46 47 48 49 50
000
ASUS43 KDTX 210210
RWRMI
MICHIGAN HOURLY REGIONAL WEATHER ROUNDUP
NATIONAL WEATHER SERVICE DETROIT/PONTIAC MI
ISSUED BY NATIONAL WEATHER SERVICE GRAND RAPIDS MI
1000 PM EDT THU JUL 20 2017

NOTE: "FAIR" INDICATES FEW OR NO CLOUDS BELOW 12,000 FEET WITH NO
SIGNIFICANT WEATHER AND/OR OBSTRUCTION TO VISIBILITY.

MIZ047>049-052>055-059>063-066>070-074>076-081>083-210300-
SOUTHEAST LOWER MICHIGAN

CITY           SKY/WX    TMP DP  RH WIND       PRES   REMARKS
ADRIAN         CLEAR     78  71  79 CALM      29.96S
ALMA           CLEAR     76  69  78 CALM      29.94S
ANN ARBOR      PTCLDY    73  71  93 S5        29.95S
BAD AXE        PTCLDY    75  69  80 SW5       29.93R
DETROIT CITY   CLEAR     81  70  69 SW7       29.94R
DETROIT        MOCLDY    80  71  74 S5        29.95S
FLINT          CLEAR     77  70  79 SW3       29.95R
GROSSE ILE     MOCLDY    78  73  84 SW5       29.93S
HILLSDALE      CLEAR     75  70  83 CALM      29.97S
HOWELL         CLEAR     75  70  83 CALM      29.96R

CITY           SKY/WX    TMP DP  RH WIND       PRES   REMARKS
JACKSON        PTCLDY    77  71  82 CALM      29.96S
LANSING        CLEAR     78  68  71 CALM      29.96R
MASON          CLEAR     74  70  85 CALM      29.96R
MONROE         MOCLDY    79  72  78 CALM      29.94R
MT. CLEMENS    PTCLDY    80  69  67 W3        29.93S
PONTIAC        PTCLDY    78  70  76 CALM      29.94S
PORT HOPE        N/A     74  69  85 VRB3      29.90R
PORT HURON     CLEAR     73  68  83 CALM      29.94S
TRI CITIES     CLEAR     78  71  79 SW7       29.93S
YPSILANTI      CLEAR     76  72  87 S6        29.95S
$$
MIZ043>046-050>051-056>058-064>065-071>073-077>080-210300-
SOUTHWEST LOWER MICHIGAN

CITY           SKY/WX    TMP DP  RH WIND       PRES   REMARKS
BATTLE CREEK   CLEAR     76  71  85 W5        29.97S
BENTON HARBOR  CLEAR     72  67  84 CALM      29.97R
BIG RAPIDS     CLEAR     73  65  74 NW8       29.96R
COLDWATER      CLEAR     75  72  89 CALM      29.96S
HOLLAND        CLEAR     72  68  87 W3        29.98R
GRAND RAPIDS   PTCLDY    76  71  85 W9        29.96R
KALAMAZOO      CLEAR     77  67  71 W5        29.97R
MARSHALL       CLEAR     76  74  93 SW5       29.96R
MOUNT PLEASANT CLEAR     78  64  61 CALM      29.93S
MUSKEGON       PTCLDY    71  68  90 CALM      29.97R
STURGIS        CLEAR     75  72  89 CALM      29.96S
$$
MIZ016>042-210300-
NORTHERN LOWER MICHIGAN

CITY           SKY/WX    TMP DP  RH WIND       PRES   REMARKS
ALPENA         CLEAR     70  67  90 SW3       29.92S
BEAVER ISLAND  CLEAR     67  65  93 CALM      29.95R
BELLAIRE       CLEAR     67  64  91 CALM      29.95R
CADILLAC       CLEAR     70  62  75 CALM      29.98R
CHARLEVOIX     CLEAR     71  64  80 SW6       29.97R
GAYLORD        CLEAR     72  62  71 W3        29.97R
HOUGHTON LAKE  PTCLDY    72  57  59 NW5       29.97R
MANISTEE       CLEAR     69  66  90 W3        29.95S
OSCODA         CLEAR     71  68  90 W7        29.91R
PELLSTON       CLEAR     71  64  78 W8        29.94R
TRAVERSE CITY  PTCLDY    72  64  76 CALM      29.93S
LUDINGTON      MOCLDY    68  67  98 SW3       29.95S
$$
MIZ007>008-015-210300-
EASTERN UPPER MICHIGAN

CITY           SKY/WX    TMP DP  RH WIND       PRES   REMARKS
KINROSS        CLEAR     62  58  86 NW6       29.93R
MACKINAC ISLAN CLEAR     68  65  90 W6        29.93R
NEWBERRY       CLEAR     65  61  88 NW3       29.94S
S. S. MARIE    CLEAR     64  57  78 NW7       29.92S
$$
MIZ004>006-011>014-085-210300-
CENTRAL UPPER MICHIGAN

CITY           SKY/WX    TMP DP  RH WIND       PRES   REMARKS
MANISTIQUE     CLEAR     67  63  88 CALM      29.94R
ESCANABA       CLEAR     75  63  66 N3        29.94R
MENOMINEE      CLEAR     78  67  68 W3        29.93S
SAWYER-GWINN   CLEAR     70  59  68 CALM      29.97S
$$
MIZ001>003-009>011-084-210300-
WESTERN UPPER MICHIGAN

CITY           SKY/WX    TMP DP  RH WIND       PRES   REMARKS
IRON MOUNTAIN  CLEAR     71  58  63 CALM      29.96R
HOUGHTON       CLEAR     68  60  75 W5        29.93S
COPPER HARBOR    N/A     61  56  83 CALM      29.91S
IRONWOOD       CLEAR     70  66  87 CALM      29.97S
$$

ABBREVIATIONS USED IN REMARKS
   TC - TEMPERATURE IN CELSIUS
  WCI - WIND CHILL INDEX
   HX - HEAT INDEX
  VSB - VISIBILITY





USA.gov is the U.S. government's official web portal to all federal, state and local government web resources and services.